This demonstration page uses our WeatherBlox Daily Observations layout. Learn more.

Left ArrowRight Arrow

36.19886, -115.1175

Hourly Observations for September 30, 2021

Temp ( °F °C ) Dew Point ( °F °C ) Humidity (%) Winds ( mph kmh ) Pressure ( in mb ) Visibility ( mi km ) Precip ( " mm )
12:53 am 00:53 Clear 65 18.3 22 -5.6 19 19 NNW 5 7 30.03 1017 10 16 0.00 0.00
1:53 am 01:53 Clear 68 20 18 -7.8 15 15 WNW 8 13 30.04 1017 10 16 0.00 0.00
2:53 am 02:53 Clear 66 18.9 16 -8.9 14 14 NNW 8 13 30.04 1017 10 16 0.00 0.00
3:53 am 03:53 Clear 68 20 17 -8.3 14 14 NW 16 26 30.02 1017 10 16 0.00 0.00
4:53 am 04:53 Clear 68 20 18 -7.8 15 15 NW 14 22 30.03 1017 10 16 0.00 0.00
5:53 am 05:53 Clear 67 19.4 18 -7.8 15 15 NNW 18 30 30.04 1017 10 16 0.00 0.00
6:53 am 06:53 Sunny 66 18.9 19 -7.2 16 16 NNW 18 30 30.07 1018 10 16 0.00 0.00
7:53 am 07:53 Sunny 67 19.4 19 -7.2 16 16 N 15 24 30.09 1019 10 16 0.00 0.00
8:53 am 08:53 Sunny 70 21.1 18 -7.8 14 14 NNW 18 30 30.10 1019 10 16 0.00 0.00
9:53 am 09:53 Sunny 74 23.3 17 -8.3 11 11 NNW 16 26 30.11 1020 10 16 0.00 0.00
10:53 am 10:53 Sunny 76 24.4 15 -9.4 10 10 N 13 20 30.10 1019 10 16 0.00 0.00
11:53 am 11:53 Sunny 78 25.6 14 -10 9 9 Calm 30.08 1019 10 16 0.00 0.00
12:53 pm 12:53 Sunny 79 26.1 14 -10 8 8 NW 3 6 30.06 1018 10 16 0.00 0.00
1:53 pm 13:53 Sunny 82 27.8 12 -11.1 7 7 N 6 9 30.01 1016 10 16 0.00 0.00
2:53 pm 14:53 Sunny 83 28.3 12 -11.1 7 7 VRB 5 7 29.98 1015 10 16 0.00 0.00
3:53 pm 15:53 Sunny 84 28.9 11 -11.7 6 6 VRB 7 11 29.97 1015 10 16 0.00 0.00
4:53 pm 16:53 Sunny 84 28.9 10 -12.2 6 6 NW 10 17 29.96 1015 10 16 0.00 0.00
5:53 pm 17:53 Sunny 83 28.3 7 -13.9 5 5 NW 9 15 29.96 1015 10 16 0.00 0.00
6:53 pm 18:53 Clear 81 27.2 10 -12.2 7 7 N 10 17 29.97 1015 10 16 0.00 0.00
7:53 pm 19:53 Clear 79 26.1 15 -9.4 9 9 Calm 29.99 1016 10 16 0.00 0.00
8:53 pm 20:53 Clear 74 23.3 13 -10.6 9 9 N 5 7 30.01 1016 10 16 0.00 0.00
9:53 pm 21:53 Clear 72 22.2 13 -10.6 10 10 N 5 7 30.03 1017 10 16 0.00 0.00
10:53 pm 22:53 Clear 72 22.2 20 -6.7 14 14 ENE 5 7 30.03 1017 10 16 0.00 0.00
11:53 pm 23:53 Clear 69 20.6 20 -6.7 15 15 Calm 30.03 1017 10 16 0.00 0.00

Powered by AerisWeather